CZ-6A R/B, 60214

Orbit data source: Space-Track

CZ-6A R/B, 60214 is space debris in SSO originally from a launch on Thu, 04 Jul 2024 UTC launched from the Taiyaun Space Center, China (TSC). Debris objects in space refer to the collection of defunct objects orbiting the Earth. Examples of debris include non-operational satellites, rocket bodies, and fragments generated from explosions, collisions, or faulty payload assembly.

Loading next visibility...
Identifier
60214, 2024-126D
Orbit
SSO
Country
Flag of CNCN / PRC
Related business
Manufacturer
SAST
Mission
Spacecraft
Bus & Motor
CZ-6A STAGE 2, YF-115
Mass
~6,000 kg wet, ~6,000 kg dry
Launch date (UTC)
2024-07-04 (2 years ago)
Launch vehicle
Unknown
Launch site
Taiyaun Space Center, China (TSC)
Object type
Payload
Rocket body
Debris
Shape & HBR
Unknown shape, 5.5 m
Radar Cross Section
Large (>1 m²)

Expand to show TLE details & history
Last TLE update: 5 hours ago

TLE from 5 hours ago
0 CZ-6A R/B
1 60214U 24126D   26095.51892449  .00005182  00000-0  27650-3 0  9991
2 60214  97.7836 124.8996 0068518  10.2431 350.0177 15.13579417 96442
Epoch: 2026-04-05T12:27Z
TLE epoch observation values (Epoch: 2026-04-05T12:27:15.075Z)
Latitude
-0.00005°
Longitude
104.26361°
Altitude
481.78 km
Speed
7.65 km/s
True Right ascension
08h 19m 35s
True Declination
0° 00' 00"
Sunlit
Object was in daylight at epoch
Visualization orbit readout
Latitude
Unknown
Longitude
Unknown
Altitude
Unknown
Speed
Unknown
Apparent Right ascension
Unknown
Apparent Declination
Unknown
Sunlit
N/A
Visualization observer readout
Local Sidereal Time
23:16:30
Azimuth
Unknown
Elevation
Unknown
Doppler factor
Unknown
Orbital elements
Apogee altitude
569.566 km
Perigee altitude
475.005 km
Semi-major axis
6,900.422 km
Eccentricity
0.00685
Inclination
97.7836°
RAAN
124.8996°
Arg. of periapsis
10.2431°
True anomaly
349.88044°
Mean anomaly
350.0177°
Eccentric anomaly
349.94919°
Mean motion
3.78643 °/min
Orbital period
95.08 mins
BSTAR
0.0002765
Loading maneuver chart data...
Computing Atmospheric mass density...
Loading historical data...
Loading historical data...
Loading historical data...
Loading historical data...
Loading historical data...
Loading historical data...
Loading historical data...
Other satellites on launch #126 in the year 2024 (2024-07-04 UTC)

Documentation

Showing up to 5 results
|